User: anonymous   Login
Location: Siratepeler Tepesi
(39.1042°N, 32.0781°E)
Time: 15:07:02
(UTC+00:00)
Language:

SPOT 3 Rocket - Orbit

View from above orbital plane
View from above orbital plane
View from above satellite
View from above satellite

Ground track
Ground track

The orbit is defined by the following mean orbital elements,

1 22830U          26160.10532169 +.00000000 +00000-0 +74664-4 0 00001
2 22830  98.4819 227.1301 0010978  20.2194 339.9423 14.32904458    08
Epoch (UTC): 09 June 2026 02:31:39
Eccentricity: 0.0010978
inclination: 98.4819°
perigee height: 774 km
apogee height: 790 km
right ascension of ascending node: 227.1301°
argument of perigee: 20.2194°
revolutions per day: 14.32904458
mean anomaly at epoch: 339.9423°

The dashed part of the orbit path shows where the satellite is in the earth's shadow,  

DLR